Home > Weather > Birmingham > Past weeks

Flag for U.S.A. Weather for the Past 2 Weeks in Birmingham, Alabama, U.S.A.

Now
24 °F

Clear.


Feels Like: 18 °F
Forecast: 24 / 40 °F
Wind: 5 mph from West

Location: Birmingham International Airport

Current Time: Feb 10, 2016 at 3:23:54 AM

Latest Report: Feb 10, 2016 at 2:53 AM


Visibility: 10 mi

Pressure: 30.17 "Hg

Humidity: 71%

Dew point: 16 °F

Location of BirminghamLocation

Historic Weather in Birmingham — Graph

°F

Birmingham Temperature Yesterday

Maximum temperature yesterday: 39 °F (at 2:53 PM)
Minimum temperature yesterday: 27 °F (at 10:53 PM)
Average temperature yesterday: 34 °F

High & Low Weather Summary for the Past Weeks

 TemperatureHumidityPressure
High76 °F (Feb 2, 11:53 AM)100% (Jan 26, 1:00 PM)30.50 "Hg (Jan 26, 1:00 PM)
Low25 °F (Feb 10, 1:53 AM)22% (Feb 6, 3:53 PM)29.77 "Hg (Feb 3, 12:53 AM)
Average48 °F65%30.08 "Hg
* Reported Jan 26 1:53 AM — Feb 10 1:53 AM, Birmingham, Weather by CustomWeather, © 2016

Note: Actual official high and low records may vary slightly from our data, if they occured in-between our weather recording intervals... More about our weather records

Advertising

Birmingham Weather History for the Previous 24 Hours

 ConditionsComfort  
Time TempWeatherWind HumidityBarometerVisibility
1:53 AM
Wed, Feb 10
25 °FClear.6 mph69%30.16 "Hg10 mi
12:53 AM26 °FClear.8 mph66%30.16 "Hg10 mi
11:53 PM
Tue, Feb 9
27 °FClear.9 mph63%30.16 "Hg10 mi
10:53 PM27 °FClear.10 mph69%30.15 "Hg10 mi
9:53 PM28 °FPassing clouds.8 mph69%30.14 "Hg10 mi
8:53 PM29 °FPassing clouds.8 mph66%30.11 "Hg10 mi
7:53 PM32 °FPassing clouds.9 mph47%30.09 "Hg10 mi
6:53 PM35 °FClear.12 mph40%30.07 "Hg10 mi
5:53 PM37 °FPassing clouds.16 mph36%30.04 "Hg10 mi
4:53 PM39 °FPartly sunny.16 mph33%30.01 "Hg10 mi
3:53 PM39 °FOvercast.16 mph33%29.98 "Hg10 mi
2:53 PM39 °FOvercast.20 mph31%29.94 "Hg10 mi
1:53 PM38 °FPartly sunny.15 mph41%29.93 "Hg10 mi
12:53 PM37 °FBroken clouds.16 mph48%29.93 "Hg10 mi
11:53 AM35 °FLight snow. Overcast.14 mph50%29.96 "Hg10 mi
10:53 AM34 °FOvercast.18 mph50%29.98 "Hg10 mi
9:53 AM34 °FOvercast.17 mph54%29.96 "Hg10 mi
8:53 AM34 °FLight snow. Mostly cloudy.13 mph56%29.96 "Hg9 mi
7:53 AM34 °FOvercast.9 mph54%29.94 "Hg10 mi
6:53 AM34 °FMostly cloudy.9 mph54%29.94 "Hg10 mi
5:53 AM34 °FOvercast.12 mph54%29.94 "Hg10 mi
4:53 AM34 °FOvercast.9 mph54%29.92 "Hg10 mi
3:53 AM34 °FOvercast.10 mph52%29.91 "Hg10 mi
Weather by CustomWeather, © 2016

See weather overviewHow to use our weather pages